EHI
0 0 0 0 0 0 0 0 0 0 0 0 1 2 2 1 2 5 8 11 13 14 14 14 13 12 15 18 21 24 26 27 28 29 30 27 22 19 16 14 13 11 9 9
0 0 0 0 0 0 0 0 0 0 0 0 0 1 1 1 2 4 6 9 11 13 14 14 13 13 13 15 17 19 21 23 24 25 27 25 21 17 14 12 11 10 9 8
0 0 0 0 0 0 0 0 0 0 0 0 0 0 1 2 2 3 4 6 9 12 13 11 10 10 10 11 13 15 16 17 18 20 22 21 18 15 12 10 9 9 8 8
0 0 0 0 0 0 0 0 0 0 0 0 0 0 1 3 3 3 5 6 8 9 9 7 5 5 6 8 10 13 14 13 14 16 17 16 14 12 10 8 8 7 6 6
0 0 0 0 0 0 0 0 0 0 0 0 0 0 1 3 3 3 6 8 6 4 4 3 3 3 3 5 7 10 12 12 12 13 13 13 10 8 7 7 6 5 4 4
0 0 0 0 0 0 0 0 0 0 0 0 0 0 2 3 3 3 6 7 4 1 1 1 1 2 3 3 5 7 9 10 10 10 9 8 6 6 6 5 4 3 2 2
0 0 0 0 0 0 0 0 0 0 0 0 0 0 2 3 2 4 7 6 2 0 0 0 0 1 1 2 2 4 6 7 7 6 5 4 4 4 4 3 3 2 1 1
0 0 0 0 0 0 0 0 0 0 0 0 0 0 1 1 3 6 7 5 1 0 0 0 0 0 0 0 0 1 3 4 4 3 2 2 3 3 2 1 1 1 0 0
0 0 0 0 0 0 0 0 0 0 0 0 0 0 1 1 3 6 6 3 0 0 0 0 0 0 0 0 0 0 1 1 1 1 1 1 1 1 0 0 0 0 0 0
0 0 0 0 0 0 0 0 0 0 0 0 0 0 1 3 5 5 4 1 0 0 0 0 0 0 0 0 0 0 0 0 0 0 0 0 0 0 0 0 0 0 0 0
0 0 0 0 0 0 0 0 0 0 0 0 0 0 1 3 5 6 5 2 0 0 0 0 0 0 0 0 0 0 0 0 0 0 0 0 0 0 0 0 0 0 0 0
0 0 0 0 0 0 0 0 0 0 0 0 0 0 0 1 5 8 8 3 0 0 0 0 0 0 0 0 0 0 0 0 0 0 0 0 0 0 0 0 0 0 0 0
0 0 0 0 0 0 0 0 0 0 0 0 0 0 0 1 5 9 8 3 0 0 0 0 0 0 0 0 0 0 0 0 0 0 0 0 0 0 0 0 0 0 0 0
0 0 0 0 0 0 0 0 0 0 0 0 0 0 0 2 6 8 7 3 0 0 0 0 0 0 0 0 0 0 0 0 0 0 0 0 0 0 0 0 0 0 0 0
0 0 0 0 0 0 0 0 0 0 0 0 0 0 2 5 7 7 6 3 1 0 0 0 0 0 0 0 0 0 0 0 0 0 0 0 0 0 0 0 0 0 0 0
0 0 0 0 0 0 0 0 0 0 0 0 0 1 5 7 6 4 4 3 1 0 0 0 0 0 0 0 0 0 0 0 0 0 0 0 0 0 0 0 0 0 0 0
0 0 0 0 0 0 0 0 0 0 0 0 0 2 5 5 3 1 2 2 1 0 0 0 0 0 0 0 0 0 0 0 0 0 0 0 0 0 0 0 0 0 0 0
0 0 0 0 0 0 0 0 0 0 0 0 0 2 2 2 0 0 1 1 1 0 0 0 0 0 0 0 0 0 0 0 0 0 0 0 0 0 0 0 0 0 0 0
0 0 0 0 0 0 0 0 0 0 0 0 1 2 2 1 0 0 0 0 0 0 0 0 0 0 0 0 0 0 0 0 0 0 0 0 0 0 0 0 0 0 0 0
0 0 0 0 0 0 0 0 0 0 0 0 1 3 3 1 0 0 0 0 0 0 0 0 0 0 0 0 0 0 0 0 0 0 0 0 0 0 0 0 0 0 0 0
0 0 0 0 0 0 0 0 0 0 0 0 1 3 3 1 0 0 0 0 0 0 0 0 0 0 0 0 0 0 0 0 0 0 0 0 0 0 0 0 0 0 0 0
0 0 0 0 0 0 0 0 0 0 0 0 1 2 2 1 0 0 0 0 0 0 0 0 0 0 0 0 0 0 0 0 0 0 0 0 0 0 0 0 0 0 0 0
0 0 0 0 0 0 0 0 0 0 0 0 1 2 1 0 0 0 0 0 0 0 0 0 0 0 0 0 0 0 0 0 0 0 0 0 0 0 0 0 0 0 0 0
0 0 0 0 0 0 0 0 0 0 0 0 1 1 0 0 0 0 0 0 0 0 0 0 0 0 0 0 0 0 0 0 0 0 0 0 0 0 0 0 0 0 0 0
0 0 0 0 0 0 0 0 0 0 0 0 0 0 0 0 0 0 0 0 0 0 0 0 0 0 0 0 0 0 0 0 0 0 0 0 0 0 0 0 0 0 0 0
0 0 0 0 0 0 0 0 0 0 0 0 0 0 0 0 0 0 0 0 0 0 0 0 0 0 0 0 0 0 0 0 0 0 0 0 0 0 0 0 0 0 0 0
Wind_Speed
7 10 9 7 3 1 3 4 6 6 4 5 6 9 9 7 7 6 6 5 5 7 7 7 7 7 7 6 5 5 4 4 2 1 1 0 1 1 1 1 2 2 2 2
9 8 5 4 4 4 5 6 7 7 5 3 7 8 8 7 6 6 6 6 5 6 6 7 7 8 8 8 6 5 5 4 3 2 1 0 0 1 2 2 3 4 3 3
7 7 6 6 7 7 6 5 4 5 6 6 7 9 10 8 7 6 6 5 5 5 5 6 7 8 8 8 7 5 5 5 4 3 1 1 1 1 1 1 2 4 4 3
5 5 6 8 7 7 6 3 3 6 8 6 8 6 10 11 9 8 7 6 5 5 5 6 6 7 8 8 7 7 6 6 5 4 3 3 2 2 2 2 2 3 3 4
6 6 7 6 4 5 1 3 4 6 7 5 7 8 5 10 9 10 9 7 6 6 6 6 6 7 7 7 7 6 6 6 6 5 4 3 3 2 2 2 3 3 3 4
3 3 4 2 2 3 5 6 5 7 8 8 4 7 3 6 6 8 10 8 7 7 7 6 6 6 6 7 7 7 6 7 7 6 5 5 4 3 3 3 2 2 2 3
8 7 5 5 7 7 8 7 6 7 7 4 3 6 1 5 2 5 9 10 9 8 7 6 5 5 6 7 7 7 7 7 7 6 6 5 4 4 3 3 3 3 3 3
8 8 7 5 5 4 6 8 7 6 5 2 5 4 4 5 4 5 8 10 10 8 7 6 6 5 5 6 6 6 7 7 7 6 6 5 5 4 4 4 4 4 3 4
4 4 6 4 3 5 6 6 6 8 8 7 3 3 6 6 6 7 9 10 10 8 8 7 6 5 5 5 6 6 6 6 6 6 5 5 5 5 5 4 4 4 4 3
3 3 5 5 6 3 5 3 4 7 6 7 4 4 2 8 8 9 10 10 10 9 8 7 6 6 5 5 5 5 6 6 6 5 5 5 5 5 5 5 6 5 5 5
5 5 5 7 6 5 6 6 6 6 6 7 6 1 5 3 7 10 11 11 11 10 9 7 6 6 5 5 5 5 5 5 5 5 5 6 5 5 5 5 5 5 5 6
3 5 5 5 2 3 6 5 6 6 6 7 7 1 6 4 5 9 11 11 10 10 9 8 7 6 5 5 5 5 5 5 5 5 5 5 5 6 6 6 6 6 6 6
1 5 6 7 7 7 6 5 6 7 7 7 8 1 7 6 6 9 11 12 11 10 9 8 7 6 6 6 5 5 5 5 5 4 5 6 6 6 6 6 6 6 6 6
4 5 6 6 3 2 5 6 6 8 8 7 8 4 5 6 8 10 11 12 12 11 9 9 7 6 6 5 5 5 5 4 4 5 5 6 6 5 6 6 6 6 6 7
4 5 5 5 4 5 6 7 7 8 9 10 8 6 1 5 7 10 12 13 12 11 10 9 8 6 6 6 5 4 5 4 4 4 5 5 5 5 5 6 6 6 6 7
3 4 4 6 5 5 7 7 7 8 8 8 7 3 5 7 8 10 12 13 12 12 10 9 9 7 6 6 5 5 5 4 4 5 5 5 5 5 6 5 6 6 6 6
3 4 5 6 4 7 7 3 4 4 3 5 6 2 7 8 9 10 12 12 11 11 11 10 9 8 7 6 5 5 5 4 4 4 4 5 5 5 5 6 6 6 6 7
5 5 4 5 6 7 2 2 2 3 1 3 2 5 6 8 8 8 10 11 11 11 11 10 9 8 7 6 5 5 5 4 4 5 5 5 5 5 5 6 6 5 5 6
6 5 5 5 6 5 2 1 2 4 1 3 3 7 9 11 10 8 7 9 10 11 10 10 9 9 8 7 6 6 5 4 5 5 5 5 5 5 6 6 6 5 5 6
6 7 6 5 6 4 3 4 3 5 3 5 4 8 10 10 6 7 9 10 12 12 10 10 9 9 8 7 6 6 6 5 5 5 5 5 5 5 6 6 5 5 5 6
5 5 6 7 6 0 6 4 4 4 4 3 4 7 9 5 5 12 14 13 13 13 12 11 10 8 8 7 6 6 6 6 5 5 6 6 5 5 6 5 4 4 5 6
3 3 3 4 4 2 7 4 4 5 3 3 5 7 7 10 13 15 15 14 14 13 12 11 10 8 7 7 7 7 6 6 6 6 6 6 5 5 5 5 4 4 5 6
2 3 3 3 3 5 4 5 4 3 2 4 6 9 11 13 14 15 15 14 14 13 12 10 10 9 7 6 6 7 7 6 6 6 7 6 6 5 5 5 5 4 4 4
0 2 3 2 2 3 3 4 4 3 3 5 8 11 12 14 15 15 14 13 13 13 12 10 10 9 8 7 7 7 7 6 6 7 7 6 5 6 6 4 4 4 4 4
4 3 3 1 2 2 4 4 4 5 6 8 10 11 12 15 16 15 14 13 12 11 11 10 10 10 9 8 7 7 7 6 6 6 6 6 6 6 5 6 6 6 7 7
3 4 5 3 4 3 2 3 3 5 7 9 11 12 12 14 15 15 13 12 12 11 11 10 10 10 10 9 8 7 7 6 6 6 5 5 5 4 4 5 6 8 6 6
Wind_Direction
189 205 194 174 214 101 167 179 152 118 129 186 158 143 148 156 162 146 132 122 110 92 79 67 55 49 47 48 46 39 39 40 31 40 41 67 94 61 41 28 13 350 335 303
191 190 154 148 176 199 196 189 154 130 132 197 155 150 153 164 167 155 148 140 122 106 89 71 58 50 44 39 39 40 33 29 23 26 38 60 70 73 55 32 33 17 357 344
192 127 147 184 187 203 207 218 169 145 147 173 178 176 172 170 168 163 157 144 130 111 93 76 61 52 46 38 29 30 30 28 24 19 50 94 110 100 77 58 48 28 14 14
192 147 184 200 194 216 192 170 185 179 205 187 215 232 172 172 180 182 173 158 141 122 102 81 66 54 46 38 34 32 34 33 27 23 33 48 63 61 34 19 49 44 28 18
170 176 198 201 186 230 114 147 199 218 240 233 214 257 155 169 194 193 181 167 151 129 110 89 70 57 49 41 37 36 41 41 34 30 30 36 49 51 54 47 53 39 33 23
175 180 232 207 163 187 155 175 191 221 234 236 219 261 202 167 207 182 168 163 147 131 116 97 81 67 53 46 43 40 43 41 36 34 34 41 51 53 58 49 43 38 35 28
182 178 177 195 179 176 210 226 224 220 224 225 145 253 56 96 112 162 160 155 146 138 126 112 96 78 62 50 43 40 44 43 39 41 39 42 49 59 58 43 43 37 33 31
193 176 172 192 229 205 217 250 264 270 272 261 181 238 88 96 108 135 140 143 145 142 131 117 102 90 75 59 48 43 44 44 43 42 39 37 40 46 48 41 38 39 30 31
212 167 149 178 221 251 220 239 288 278 268 270 231 167 134 130 136 142 142 145 150 147 136 121 108 94 81 68 56 49 48 48 46 47 49 47 48 50 50 44 39 42 37 35
266 221 172 171 192 195 283 264 245 262 270 269 251 233 184 164 170 166 165 162 155 148 136 126 115 103 92 81 70 60 54 51 48 46 46 51 51 52 52 48 45 40 38 40
247 245 199 197 225 219 199 215 247 263 280 282 280 313 68 146 168 170 169 163 156 149 142 134 123 115 108 97 84 73 64 58 51 52 53 54 53 50 52 53 49 45 46 45
232 257 242 222 197 276 255 246 240 259 262 265 283 360 90 117 148 158 154 151 150 148 143 138 133 130 123 105 90 79 70 66 60 60 61 58 59 56 54 52 49 49 51 50
227 235 231 206 187 196 224 232 248 261 268 266 271 226 117 127 138 145 146 146 146 146 145 142 139 135 121 108 100 89 78 69 67 70 71 65 60 60 59 56 53 51 55 55
276 252 265 272 300 265 235 230 235 253 264 273 276 279 170 158 154 149 147 147 146 148 150 145 140 134 123 115 108 100 89 77 71 68 70 67 61 60 60 59 59 56 56 58
280 249 254 273 281 272 266 259 247 252 272 284 295 296 314 157 159 154 149 149 149 152 154 148 145 138 130 122 116 108 97 82 75 76 73 68 66 61 60 59 58 58 58 61
299 273 257 250 239 252 263 260 255 258 270 278 283 295 79 119 136 147 153 157 157 156 154 150 146 144 139 130 126 118 104 96 88 77 73 69 68 64 61 63 65 66 66 67
277 263 259 258 253 258 249 265 270 269 283 288 295 58 129 141 151 157 159 163 159 154 153 151 150 146 138 134 129 120 110 106 96 84 76 72 74 72 69 72 72 71 73 76
271 274 266 266 260 250 62 41 317 289 325 350 40 108 135 135 135 141 154 157 153 152 151 150 145 139 135 134 133 125 117 109 100 88 80 75 76 79 79 76 75 73 75 76
231 258 265 263 256 253 148 67 323 292 85 61 98 118 120 124 126 124 139 145 144 143 141 139 139 138 138 140 141 131 121 111 96 89 84 77 75 80 78 74 74 77 79 78
193 232 253 250 260 261 71 39 337 273 163 83 118 138 145 165 174 137 141 136 130 130 130 132 136 136 137 137 134 128 120 112 100 94 91 83 79 79 78 77 78 82 86 84
187 209 234 249 253 253 35 348 275 274 48 77 139 149 163 172 81 122 135 132 131 132 134 136 136 138 138 137 136 131 124 111 104 98 94 84 78 82 80 81 78 81 86 86
275 245 227 248 250 85 22 355 12 25 42 114 136 141 136 111 114 127 133 134 136 136 136 137 136 133 133 140 144 131 117 110 107 103 99 91 81 78 85 87 84 86 95 102
296 338 324 334 22 48 25 28 33 21 82 119 132 132 132 131 132 134 136 137 138 138 138 139 135 132 135 140 137 122 118 120 116 109 103 96 87 78 78 87 93 97 92 89
164 333 288 280 75 48 52 53 50 53 90 120 132 138 140 137 137 138 138 138 140 140 142 142 141 141 138 136 130 126 127 128 123 115 111 109 101 95 84 73 71 73 71 75
317 302 283 276 55 84 80 53 66 84 105 121 130 137 139 139 140 140 140 140 140 140 140 142 143 137 135 135 135 134 131 132 122 116 113 110 101 92 90 72 45 38 54 34
280 300 315 354 16 343 27 56 88 112 127 134 135 135 139 142 141 142 140 141 140 141 143 143 142 138 139 140 136 133 134 134 132 130 127 118 111 106 107 113 105 62 54 65